[[{"header":{"parameterUnit":"m.s-1","parameterCategory":1,"la1":30.2991,"la2":30.254,"lo1":-89.0895,"lo2":-89.0444,"dy":0.0017,"dx":0.0017,"nx":28,"ny":28,"refTime":"2024-03-23T09:00:00:Z","depth":0,"parameterNumber":2,"parameterNumberName":"U-component_of_WINDS"},"data":[0,0,0,0,0,0,0,0,0,0,0,0,0,0,0,0,0,0,0,0,0,0,0,0,0,0,0,0,0,0,0,0,0,0,0,0,0,0,0,0,0,0,0,0,0,0,0,0,0,0,0,0,0,0,0,0,0,0,-4.3153,-4.3154,0,-4.3197,-4.3197,-4.3198,-4.3049,-4.3045,-4.304,-4.3036,-4.3083,-4.3088,-4.3093,0,0,0,0,0,0,0,0,0,0,0,0,0,-4.2941,-4.2945,-4.3153,-4.3154,-4.3154,-4.3197,-4.3197,-4.3198,-4.305,-4.3045,-4.3039,-4.3034,-4.3081,-4.3087,-4.3094,0,0,0,0,0,0,0,0,0,0,0,0,0,-4.3014,-4.2947,-4.3153,-4.3085,-4.308,-4.3197,-4.3197,-4.3198,-4.3051,-4.3044,-4.3038,-4.3031,-4.3079,-4.3087,-4.3095,-4.3279,0,0,-4.312,-4.3123,0,0,0,0,0,0,0,0,-4.301,-4.3022,-4.3095,-4.309,-4.3084,-4.3111,-4.3139,-4.3225,-4.3053,-4.3062,-4.3036,-4.3028,-4.3098,-4.3104,-4.3127,-4.3282,-4.3284,-4.312,-4.3125,-4.3129,-4.3131,0,0,0,0,0,0,0,-4.3005,-4.3019,-4.317,-4.3096,-4.309,-4.3053,-4.3056,-4.3155,-4.3117,-4.3061,-4.305,-4.3057,-4.3093,-4.3119,-4.3127,-4.3284,-4.312,-4.3127,-4.3132,-4.3136,-4.359,-4.3597,0,0,0,0,0,0,-4.3009,-4.3016,-4.3169,-4.3172,-4.303,-4.3062,-4.3065,-4.3109,-4.3116,-4.311,-4.3063,-4.305,-4.3109,-4.3117,-4.3128,-4.3343,-4.3129,-4.3136,-4.3141,-4.3583,-4.3591,-4.3599,0,0,0,0,0,0,-4.3005,-4.3024,-4.3167,-4.3091,-4.3106,-4.3073,-4.3123,-4.3113,-4.3139,-4.3117,-4.311,-4.3096,-4.3104,-4.3116,-4.3242,-4.3342,-4.314,-4.3147,-4.3574,-4.3585,-4.3595,-4.3776,0,0,0,0,0,0,-4.2999,-4.3023,-4.3093,-4.3093,-4.3111,-4.3282,-4.3129,-4.3119,-4.3153,-4.3137,-4.3147,-4.3142,-4.3099,-4.3231,-4.325,-4.335,-4.3154,-4.3565,-4.3579,-4.3592,-4.3761,-4.3791,-4.3818,0,0,0,0,0,-4.2992,-4.3144,-4.3098,-4.3117,-4.3198,-4.3288,-4.3298,-4.3245,-4.3162,-4.3232,-4.3217,-4.3141,-4.3328,-4.3245,-4.3265,-4.3369,-4.3558,-4.3575,-4.3591,-4.3748,-4.3785,-4.3817,0,0,0,0,0,0,-4.3158,-4.3142,-4.3092,-4.3247,-4.327,-4.3262,-4.3349,-4.3287,-4.3334,-4.3317,-4.325,-4.3254,-4.3391,-4.3392,-4.33,-4.3547,-4.3429,-4.345,-4.3541,-4.3577,-4.3605,-4.3602,-4.316,0,0,0,0,0,-4.3212,-4.3286,-4.3269,-4.3408,-4.3421,-4.3384,-4.3421,-4.3378,-4.3399,-4.3408,-4.3403,-4.3426,-4.3489,-4.3533,-4.359,-4.376,-4.3759,-4.3841,-4.3869,-4.3893,-4.3912,-4.4,-4.4036,-4.3652,-4.3652,-4.3652,0,0,-4.3326,-4.3326,-4.3378,-4.3441,-4.3453,-4.3531,-4.3393,-4.3482,-4.3538,-4.3422,-4.354,-4.3537,-4.3558,-4.3706,-4.3771,-4.3711,-4.4017,-4.3913,-4.3932,-4.3939,-4.402,-4.4056,-4.4089,-4.3663,-4.3661,-4.366,0,0,-4.3572,-4.3581,-4.3697,-4.3711,-4.3731,-4.3704,-4.3732,-4.3734,-4.3727,-4.3844,-4.3757,-4.3823,-4.3935,-4.3953,-4.3977,-4.4227,-4.4159,-4.4248,-4.4397,-4.4483,-4.4513,-4.454,-4.4628,-4.4661,-4.4267,-4.4267,-4.4268,0,-4.3712,-4.3825,-4.3764,-4.3858,-4.3888,-4.3784,-4.3901,-4.3918,-4.3956,-4.3979,-4.3911,-4.4047,-4.4054,-4.4204,-4.4265,-4.4288,-4.4317,-4.4247,-4.4514,-4.454,-4.4564,-4.4647,-4.4681,-4.4278,-4.4277,-4.4276,-4.4275,0,-4.3994,-4.4074,-4.4165,-4.4203,-4.4243,-4.4348,-4.4303,-4.435,-4.4304,-4.4284,-4.4403,-4.4408,-4.4463,-4.4495,-4.4452,-4.4639,-4.4601,-4.4525,-4.4405,-4.4612,-4.4689,-4.4721,-4.4293,-4.4289,-4.4286,-4.4284,0,0,-4.4349,-4.435,-4.4384,-4.4399,-4.4412,-4.4472,-4.4571,-4.4624,-4.4666,-4.4695,-4.4776,-4.4871,-4.48,-4.4827,-4.4784,-4.486,-4.5056,-4.4774,-4.4773,-4.4826,-4.5261,-4.5318,-4.5356,-4.501,-4.5016,-4.5021,-4.5259,0,-4.4591,-4.476,-4.4707,-4.4878,-4.495,-4.4851,-4.4937,-4.4954,-4.4938,-4.4996,-4.4978,-4.5046,-4.4948,-4.4963,-4.5033,-4.5018,-4.5143,-4.5,-4.5085,-4.5089,-4.5083,-4.5397,-4.5458,-4.5683,-4.5289,-4.5294,-4.5298,0,-4.4896,-4.4936,-4.5114,-4.5112,-4.514,-4.5219,-4.5261,-4.5319,-4.5335,-4.5318,-4.5347,-4.5287,-4.5383,-4.5263,-4.5394,-4.5298,-4.5329,-4.5326,-4.5334,-4.534,-4.5206,-4.5412,-4.5753,-4.5787,-4.5345,-4.5341,-4.5338,0,-4.5136,-4.5234,-4.5352,-4.5368,-4.5369,-4.5426,-4.5429,-4.5439,-4.5473,-4.5511,-4.5532,-4.5581,-4.5608,-4.5647,-4.5602,-4.5518,-4.5739,-4.5615,-4.5727,-4.5729,-4.5779,-4.5777,-4.6131,-4.58,-4.5799,-4.5799,-4.5798,0,-4.5412,-4.5525,-4.5459,-4.5533,-4.5655,-4.5592,-4.5715,-4.5707,-4.5716,-4.5785,-4.5702,-4.5769,-4.5705,-4.5765,-4.573,-4.5844,-4.5857,-4.5845,-4.5834,-4.5852,-4.5854,-4.5872,-4.5856,-4.5808,-4.5806,-4.5804,-4.5802,0,-4.5701,-4.5662,-4.5784,-4.5774,-4.5774,-4.5865,-4.5856,-4.5923,-4.5899,-4.5988,-4.6005,-4.5969,-4.6035,-4.5993,-4.6062,-4.6038,-4.6185,-4.6153,-4.618,-4.6171,-4.6285,-4.6275,-4.6664,-4.6711,-4.6351,-4.6354,-4.6357,0,-4.588,-4.5964,-4.5962,-4.6002,-4.601,-4.6076,-4.6109,-4.605,-4.6089,-4.6113,-4.6176,-4.6236,-4.628,-4.6391,-4.6371,-4.6422,-4.639,-4.6523,-4.6397,-4.6412,-4.6391,-4.6387,-4.6394,-4.6548,-4.6553,-4.6556,-4.6559,0,-4.6201,-4.6176,-4.6228,-4.6274,-4.6316,-4.6349,-4.6375,-4.6413,-4.6353,-4.64,-4.6467,-4.6501,-4.6569,-4.6629,-4.6671,-4.6673,-4.6607,-4.6598,-4.6627,-4.6646,-4.6658,-4.6652,-4.6249,-4.659,-4.6587,-4.6584,-4.6583,-4.6582,-4.644,-4.6509,-4.6517,-4.6578,-4.659,-4.6616,-4.6677,-4.6661,-4.6715,-4.6765,-4.6727,-4.6806,-4.6817,-4.6867,-4.6878,-4.6938,-4.6884,-4.6926,-4.6936,-4.6947,-4.6963,-4.6648,-4.6946,-4.6945,-4.6944,-4.6943,-4.6942,0,-4.6755,-4.6755,-4.6811,-4.6849,-4.6896,-4.6827,-4.6852,-4.6896,-4.6966,-4.6982,-4.7027,-4.7102,-4.7159,-4.7142,-4.7193,-4.7244,-4.7215,-4.7259,-4.7255,-4.7256,-4.7009,-4.6979,-4.7282,-4.7282,-4.7282,-4.7282,-4.7282,-4.7282,-4.6925,-4.7038,-4.7014,-4.7132,-4.7131,-4.7207,-4.7226,-4.7249,-4.7261,-4.7349,-4.7395,-4.7383,-4.7386,-4.7436,-4.7484,-4.7477,-4.75,-4.7556,-4.7539,-4.7308,-4.7274,-4.7242,-4.7213,-4.7561,-4.7562,-4.7781,-4.7783,-4.7784]},{"header":{"parameterUnit":"m.s-1","parameterCategory":1,"la1":30.2991,"la2":30.254,"lo1":-89.0895,"lo2":-89.0444,"dy":0.0017,"dx":0.0017,"nx":28,"ny":28,"refTime":"2024-03-23T09:00:00:Z","depth":0,"parameterNumber":3,"parameterNumberName":"V-component_of_WINDS"},"data":[0,0,0,0,0,0,0,0,0,0,0,0,0,0,0,0,0,0,0,0,0,0,0,0,0,0,0,0,0,0,0,0,0,0,0,0,0,0,0,0,0,0,0,0,0,0,0,0,0,0,0,0,0,0,0,0,0,0,-3.3932,-3.3933,0,-3.4013,-3.4014,-3.4015,-3.3991,-3.399,-3.3988,-3.3986,-3.4067,-3.407,-3.4074,0,0,0,0,0,0,0,0,0,0,0,0,0,-3.3752,-3.3755,-3.3932,-3.3933,-3.3934,-3.4013,-3.4014,-3.4016,-3.3992,-3.3989,-3.3987,-3.3986,-3.4066,-3.407,-3.4074,0,0,0,0,0,0,0,0,0,0,0,0,0,-3.3831,-3.3756,-3.3932,-3.3932,-3.3933,-3.4013,-3.4014,-3.4016,-3.3992,-3.3989,-3.3987,-3.3985,-3.4064,-3.407,-3.4075,-3.416,0,0,-3.4092,-3.4094,0,0,0,0,0,0,0,0,-3.3827,-3.3838,-3.3931,-3.3932,-3.3933,-3.399,-3.398,-3.4064,-3.3993,-3.3969,-3.3986,-3.3983,-3.4043,-3.405,-3.4071,-3.4164,-3.4167,-3.4093,-3.4096,-3.4098,-3.41,0,0,0,0,0,0,0,-3.3821,-3.3834,-3.3964,-3.3932,-3.3934,-3.3926,-3.3935,-3.3996,-3.4019,-3.3971,-3.397,-3.398,-3.4043,-3.4066,-3.4073,-3.4168,-3.4092,-3.4097,-3.4101,-3.4103,-3.4331,-3.4334,0,0,0,0,0,0,-3.3815,-3.383,-3.3962,-3.3967,-3.3873,-3.3931,-3.3941,-3.3974,-3.4019,-3.4023,-3.3982,-3.3978,-3.4057,-3.4066,-3.4075,-3.4175,-3.4098,-3.4103,-3.4107,-3.4328,-3.4332,-3.4335,0,0,0,0,0,0,-3.3812,-3.3827,-3.3958,-3.3898,-3.3914,-3.3937,-3.3975,-3.3977,-3.3999,-3.4027,-3.403,-3.4001,-3.4056,-3.4067,-3.4138,-3.4178,-3.4106,-3.4111,-3.4325,-3.4329,-3.4333,-3.4378,0,0,0,0,0,0,-3.3807,-3.3826,-3.386,-3.3899,-3.3917,-3.4022,-3.3977,-3.398,-3.4009,-3.4006,-3.4045,-3.4049,-3.4055,-3.413,-3.4144,-3.4184,-3.4115,-3.4322,-3.4327,-3.4332,-3.4373,-3.4383,-3.4391,0,0,0,0,0,-3.38,-3.3869,-3.3862,-3.3878,-3.396,-3.4024,-3.4034,-3.404,-3.4013,-3.4046,-3.4063,-3.4048,-3.4172,-3.4138,-3.4153,-3.4196,-3.4319,-3.4326,-3.4332,-3.4369,-3.4381,-3.4391,0,0,0,0,0,0,-3.3834,-3.3874,-3.3867,-3.3951,-3.3984,-3.402,-3.4062,-3.4053,-3.4094,-3.4089,-3.4093,-3.4102,-3.4174,-3.4192,-3.4154,-3.4278,-3.4241,-3.4251,-3.4264,-3.4276,-3.4285,-3.4279,-3.412,0,0,0,0,0,-3.3851,-3.3901,-3.3933,-3.4004,-3.4021,-3.4039,-3.4067,-3.4068,-3.4102,-3.4116,-3.4139,-3.4172,-3.4217,-3.4248,-3.4292,-3.4375,-3.4382,-3.4412,-3.4421,-3.4429,-3.4436,-3.4479,-3.4492,-3.4355,-3.4355,-3.4355,0,0,-3.3888,-3.3916,-3.3947,-3.4012,-3.4038,-3.4087,-3.4051,-3.4106,-3.4142,-3.4124,-3.4193,-3.421,-3.4247,-3.4324,-3.4359,-3.4341,-3.4476,-3.4436,-3.4442,-3.4446,-3.4487,-3.45,-3.4511,-3.4359,-3.4358,-3.4358,0,0,-3.3979,-3.4006,-3.4067,-3.4093,-3.4133,-3.4144,-3.4159,-3.4196,-3.4207,-3.4275,-3.4262,-3.4304,-3.4384,-3.441,-3.4434,-3.4533,-3.452,-3.4547,-3.4595,-3.4637,-3.4647,-3.4657,-3.469,-3.4702,-3.4555,-3.4555,-3.4555,0,-3.4018,-3.4094,-3.4099,-3.4155,-3.4182,-3.4169,-3.4229,-3.4254,-3.4306,-3.4325,-3.4304,-3.4402,-3.4427,-3.4508,-3.4532,-3.4552,-3.4567,-3.4542,-3.4646,-3.4655,-3.4664,-3.4696,-3.4709,-3.4558,-3.4557,-3.4557,-3.4557,0,-3.414,-3.4192,-3.4236,-3.4287,-3.432,-3.4377,-3.4389,-3.4421,-3.4419,-3.4431,-3.45,-3.4528,-3.4576,-3.4596,-3.4594,-3.4677,-3.4664,-3.4645,-3.4607,-3.468,-3.471,-3.4722,-3.4562,-3.4561,-3.456,-3.4559,0,0,-3.4255,-3.4307,-3.4323,-3.4344,-3.4386,-3.4426,-3.4482,-3.453,-3.4556,-3.4592,-3.4638,-3.4704,-3.4686,-3.4713,-3.4714,-3.4751,-3.4824,-3.4726,-3.4727,-3.4742,-3.4914,-3.4927,-3.4941,-3.4816,-3.4818,-3.482,-3.491,0,-3.4349,-3.4448,-3.4453,-3.4543,-3.459,-3.4576,-3.4625,-3.4655,-3.4667,-3.4708,-3.4721,-3.4767,-3.4741,-3.4757,-3.4792,-3.4808,-3.4858,-3.4801,-3.4857,-3.4859,-3.4847,-3.4957,-3.4972,-3.5056,-3.4922,-3.4924,-3.4926,0,-3.4471,-3.4511,-3.4605,-3.4638,-3.4658,-3.4702,-3.4744,-3.4784,-3.4817,-3.4823,-3.4852,-3.4847,-3.4902,-3.4863,-3.4938,-3.4899,-3.4921,-3.4932,-3.4935,-3.494,-3.4896,-3.4963,-3.5083,-3.5095,-3.4944,-3.4943,-3.4941,0,-3.4544,-3.462,-3.4686,-3.4705,-3.4746,-3.4777,-3.4795,-3.4825,-3.4853,-3.489,-3.4907,-3.495,-3.4973,-3.5005,-3.5011,-3.4982,-3.5085,-3.5047,-3.509,-3.509,-3.5112,-3.511,-3.5235,-3.5129,-3.5128,-3.5128,-3.5128,0,-3.4647,-3.4705,-3.4719,-3.4759,-3.4823,-3.4827,-3.4889,-3.4905,-3.4932,-3.4973,-3.4964,-3.5003,-3.5009,-3.5049,-3.5054,-3.5113,-3.5124,-3.513,-3.513,-3.513,-3.5129,-3.5144,-3.5138,-3.5131,-3.5131,-3.513,-3.5129,0,-3.4739,-3.4751,-3.4821,-3.4854,-3.4863,-3.4908,-3.4935,-3.4973,-3.4983,-3.5036,-3.5049,-3.5065,-3.5112,-3.5121,-3.5176,-3.5179,-3.5249,-3.5245,-3.5238,-3.5237,-3.5279,-3.5275,-3.5418,-3.5436,-3.5319,-3.532,-3.5321,0,-3.4803,-3.4847,-3.4884,-3.4911,-3.4931,-3.4976,-3.5004,-3.5009,-3.5037,-3.5077,-3.5109,-3.5154,-3.5191,-3.5265,-3.5281,-3.5322,-3.5318,-3.5365,-3.5324,-3.5321,-3.5316,-3.5313,-3.5316,-3.5372,-3.5374,-3.5375,-3.5375,0,-3.4915,-3.4919,-3.496,-3.5002,-3.5036,-3.5069,-3.5101,-3.5124,-3.5133,-3.5165,-3.5213,-3.5241,-3.5296,-3.5341,-3.5381,-3.5398,-3.5388,-3.5388,-3.54,-3.54,-3.5394,-3.5396,-3.5258,-3.5385,-3.5384,-3.5383,-3.5383,-3.5382,-3.4994,-3.5032,-3.5063,-3.5108,-3.5133,-3.5162,-3.5198,-3.5213,-3.5253,-3.5299,-3.5299,-3.535,-3.5379,-3.5433,-3.5453,-3.5491,-3.5476,-3.5494,-3.5498,-3.5502,-3.5505,-3.5389,-3.5499,-3.5499,-3.5499,-3.5498,-3.5498,0,-3.5105,-3.5124,-3.5165,-3.521,-3.5245,-3.5233,-3.5266,-3.5296,-3.5341,-3.537,-3.5406,-3.5459,-3.5501,-3.552,-3.5561,-3.5589,-3.5585,-3.5599,-3.5597,-3.56,-3.5517,-3.5502,-3.5602,-3.5602,-3.5602,-3.5602,-3.5602,-3.5602,-3.5166,-3.5228,-3.5235,-3.5308,-3.5327,-3.5377,-3.5397,-3.5423,-3.5446,-3.5506,-3.5541,-3.5553,-3.5577,-3.562,-3.5658,-3.5662,-3.5677,-3.5693,-3.5695,-3.5617,-3.5606,-3.5596,-3.5582,-3.5697,-3.5697,-3.5775,-3.5775,-3.5776]}]]